#timestamp,LO_Frequency,Hit,StdDev 
1590226855.8,286046958.2,P
1590226875.7,286046958.1,P
1590226895.5,286046958.4,P
1590226915.4,286046959.3,Y
1590226935.2,286047000.7,P
1590226955.0,286046998.8,N
1590226955.9,286046998.8,N
1590226975.8,286046998.8,N
1590226995.6,286046996.9,N
1590227015.5,286046996.9,N
1590227035.3,286046997.7,N
1590227055.1,286046997.8,N
1590227075.9,286046995.4,N
1590227095.7,286046995.5,N
1590227115.5,286046995.7,N
1590227135.4,286046996.4,N
1590227155.2,286046993.3,N
1590227175.1,286046994.4,N
1590227176.0,286046994.4,N
1590227195.8,286046994.6,N
1590227215.6,286046991.8,N
1590227235.5,286046994.4,N
1590227255.3,286046994.5,N
1590227275.1,286046991.7,N
1590227295.9,286046992.1,N
1590227315.7,286046992.5,N
1590227335.6,286046992.4,N
1590227355.4,286046993.2,N
1590227375.2,286046994.8,N
1590227395.1,286046994.8,N
1590227396.0,286046994.8,N
1590227415.8,286046994.3,N
1590227435.6,286046993.6,N
1590227455.5,286046993.6,N
1590227475.3,286046993.8,N
1590227495.2,286046996.1,N
1590227515.9,286046995.3,N
1590227535.7,286046993.5,Y
1590227555.6,286046999.6,P
1590227575.4,286046996.7,N
1590227595.2,286046995.0,N
1590227615.1,286046995.4,N
1590227616.0,286046995.4,N
1590227635.8,286046995.5,N
1590227655.7,286046995.8,N
1590227675.5,286046995.2,Y
1590227695.3,286046998.2,P
1590227715.2,286046999.6,N
1590227735.0,286046997.2,N
1590227735.9,286046997.2,N
1590227755.8,286046997.7,N
1590227775.6,286046997.5,N
1590227795.4,286046997.7,N
1590227815.3,286046996.7,Y
1590227835.1,286046998.7,P
1590227855.8,286046998.4,P
1590227875.7,286046999.1,N
1590227895.5,286046997.3,Y
1590227915.4,286046999.0,P
1590227935.2,286046999.5,N
1590227955.0,286046996.6,P
1590227955.9,286046996.6,Y
1590227975.8,286046998.4,P
1590227995.6,286046998.5,P
